Location: Star Dogged Moon Observatory
(29.7756°N, 82.0783°W)
Time: 08:14:48
(UTC-04:00)

ARGOS - Visible Passes

Search period start: 29 May 2015 00:00
Search period end: 08 June 2015 00:00
Orbit: 821 x 835 km, 98.7° (Epoch: 28 May)

Date Brightness Start Highest point End Pass type
(mag) Time Alt. Az. Time Alt. Az. Time Alt. Az.
29 May 5.2 00:14:51 19° W 00:14:51 19° W 00:17:41 10° NW visible
29 May 4.4 22:14:34 25° E 22:15:03 25° ENE 22:19:28 10° NNE visible
29 May 4.6 23:56:06 30° WNW 23:56:06 30° WNW 23:59:56 10° NW visible
30 May 4.8 21:55:48 16° E 21:56:42 17° ENE 22:00:08 10° NNE visible
30 May 4.0 23:37:20 46° WNW 23:37:20 46° WNW 23:41:51 10° NNW visible
31 May 5.2 21:37:37 10° ENE 21:38:23 10° ENE 21:39:34 10° NE visible
31 May 3.3 23:18:33 71° WNW 23:18:33 71° WNW 23:23:32 10° NNW visible
01 Jun 3.1 22:59:48 70° ENE 22:59:48 70° ENE 23:05:03 10° N visible
02 Jun 3.6 22:41:02 45° E 22:41:12 45° ENE 22:46:23 10° N visible
03 Jun 5.4 00:22:33 16° W 00:22:33 16° W 00:25:00 10° NW visible
03 Jun 4.1 22:22:16 29° E 22:22:49 30° ENE 22:27:30 10° NNE visible
04 Jun 4.8 00:03:47 25° W 00:03:47 25° W 00:07:28 10° NW visible
04 Jun 4.7 22:03:31 19° E 22:04:27 20° ENE 22:08:22 10° NNE visible
04 Jun 4.2 23:45:01 39° W 23:45:01 39° W 23:49:30 10° NNW visible
05 Jun 5.1 21:44:45 12° E 21:46:07 13° ENE 21:48:36 10° NE visible
05 Jun 3.5 23:26:16 62° W 23:26:16 62° W 23:31:17 10° NNW visible
06 Jun 3.0 23:07:31 84° NE 23:07:31 84° NE 23:12:52 10° N visible
07 Jun 3.3 22:48:46 54° E 22:48:59 55° ENE 22:54:16 10° N visible
